TimeCST,TemperatureF,Dew PointF,Humidity,Sea Level PressureIn,VisibilityMPH,Wind Direction,Wind SpeedMPH,Gust SpeedMPH,PrecipitationIn,Events,Conditions,WindDirDegrees,DateUTC
12:15 AM,49.3,40.1,71,30.35,10.0,Calm,Calm,-,N/A,,Clear,0,2013-02-01 06:15:00
12:35 AM,49.3,40.5,72,30.34,10.0,SSW,3.5,-,N/A,,Clear,210,2013-02-01 06:35:00
12:55 AM,47.3,41.4,80,30.34,10.0,Calm,Calm,-,N/A,,Clear,0,2013-02-01 06:55:00
1:15 AM,47.7,41.0,78,30.34,10.0,Calm,Calm,-,N/A,,Clear,0,2013-02-01 07:15:00
1:35 AM,48.2,40.8,76,30.33,10.0,Calm,Calm,-,N/A,,Clear,0,2013-02-01 07:35:00
1:55 AM,48.2,41.5,78,30.32,10.0,Calm,Calm,-,N/A,,Clear,0,2013-02-01 07:55:00
2:15 AM,48.0,41.7,79,30.32,10.0,Calm,Calm,-,N/A,,Clear,0,2013-02-01 08:15:00
2:35 AM,47.3,43.0,85,30.32,10.0,Calm,Calm,-,N/A,,Clear,0,2013-02-01 08:35:00
2:55 AM,47.3,43.0,85,30.32,10.0,Calm,Calm,-,N/A,,Clear,0,2013-02-01 08:55:00
3:15 AM,46.4,44.4,93,30.32,10.0,Calm,Calm,-,N/A,,Clear,0,2013-02-01 09:15:00
3:35 AM,46.8,44.6,92,30.33,10.0,Calm,Calm,-,N/A,,Clear,0,2013-02-01 09:35:00
3:55 AM,46.9,46.9,100,30.32,10.0,Calm,Calm,-,N/A,,Clear,0,2013-02-01 09:55:00
4:15 AM,46.6,45.9,97,30.32,10.0,Calm,Calm,-,N/A,,Clear,0,2013-02-01 10:15:00
4:35 AM,45.9,45.7,99,30.33,10.0,Calm,Calm,-,N/A,,Clear,0,2013-02-01 10:35:00
4:55 AM,45.5,45.5,100,30.33,10.0,Calm,Calm,-,N/A,,Clear,0,2013-02-01 10:55:00
5:15 AM,46.0,46.0,100,30.34,10.0,Calm,Calm,-,N/A,,Clear,0,2013-02-01 11:15:00
5:35 AM,46.4,46.0,99,30.34,10.0,Calm,Calm,-,N/A,,Clear,0,2013-02-01 11:35:00
5:55 AM,45.9,45.9,100,30.35,10.0,Calm,Calm,-,N/A,,Clear,0,2013-02-01 11:55:00
6:15 AM,46.6,46.0,98,30.36,10.0,Calm,Calm,-,N/A,,Clear,0,2013-02-01 12:15:00
6:35 AM,46.6,46.0,98,30.36,10.0,Calm,Calm,-,N/A,,Clear,0,2013-02-01 12:35:00
6:55 AM,46.4,46.4,100,30.37,10.0,Calm,Calm,-,N/A,,Clear,0,2013-02-01 12:55:00
7:15 AM,46.6,46.6,100,30.38,10.0,NNE,5.8,-,N/A,,Clear,20,2013-02-01 13:15:00
7:35 AM,47.3,46.8,98,30.38,10.0,NE,3.5,-,N/A,,Clear,40,2013-02-01 13:35:00
7:55 AM,48.6,47.7,97,30.39,10.0,NNE,3.5,-,N/A,,Clear,20,2013-02-01 13:55:00
8:15 AM,50.0,48.2,94,30.39,10.0,Calm,Calm,-,N/A,,Clear,0,2013-02-01 14:15:00
8:35 AM,53.6,48.0,81,30.39,10.0,North,5.8,-,N/A,,Clear,10,2013-02-01 14:35:00
8:55 AM,53.6,48.4,82,30.40,10.0,NNE,5.8,-,N/A,,Clear,20,2013-02-01 14:55:00
9:15 AM,55.6,46.2,71,30.40,10.0,North,6.9,-,N/A,,Clear,10,2013-02-01 15:15:00
9:35 AM,57.4,45.9,65,30.41,10.0,NE,4.6,-,N/A,,Clear,40,2013-02-01 15:35:00
9:55 AM,57.6,45.1,63,30.41,10.0,NE,4.6,-,N/A,,Clear,40,2013-02-01 15:55:00
10:15 AM,59.7,45.3,59,30.41,10.0,Calm,Calm,-,N/A,,Clear,0,2013-02-01 16:15:00
10:35 AM,60.4,45.7,58,30.40,10.0,Calm,Calm,-,N/A,,Clear,0,2013-02-01 16:35:00
10:55 AM,62.1,45.5,55,30.40,10.0,North,3.5,-,N/A,,Clear,360,2013-02-01 16:55:00
11:15 AM,64.0,45.3,51,30.39,10.0,North,4.6,-,N/A,,Clear,360,2013-02-01 17:15:00
11:35 AM,64.6,43.2,46,30.38,10.0,North,6.9,-,N/A,,Clear,360,2013-02-01 17:35:00
11:55 AM,64.9,44.4,47,30.38,7.0,NNE,5.8,-,N/A,,Clear,30,2013-02-01 17:55:00
12:15 PM,65.1,43.0,45,30.37,10.0,NE,5.8,-,N/A,,Clear,40,2013-02-01 18:15:00
12:35 PM,66.2,41.0,40,30.36,10.0,Calm,Calm,-,N/A,,Clear,0,2013-02-01 18:35:00
12:55 PM,67.1,41.5,39,30.35,10.0,Calm,Calm,-,N/A,,Clear,0,2013-02-01 18:55:00
1:15 PM,66.4,40.6,39,30.35,10.0,Calm,Calm,-,N/A,,Clear,0,2013-02-01 19:15:00
1:35 PM,66.9,39.4,36,30.34,10.0,Calm,Calm,-,N/A,,Clear,0,2013-02-01 19:35:00
1:55 PM,67.1,40.1,37,30.33,10.0,Calm,Calm,-,N/A,,Clear,0,2013-02-01 19:55:00
2:15 PM,67.3,40.6,38,30.32,10.0,North,3.5,-,N/A,,Clear,10,2013-02-01 20:15:00
2:35 PM,68.0,41.2,38,30.32,10.0,ESE,4.6,-,N/A,,Clear,120,2013-02-01 20:35:00
2:55 PM,68.0,41.7,38,30.31,10.0,Calm,Calm,-,N/A,,Clear,0,2013-02-01 20:55:00
3:35 PM,68.2,41.2,37,30.31,10.0,Calm,Calm,-,N/A,,Clear,0,2013-02-01 21:35:00
3:55 PM,67.6,41.0,38,30.31,10.0,ENE,3.5,-,N/A,,Clear,60,2013-02-01 21:55:00
4:15 PM,66.7,45.9,47,30.31,10.0,SSE,8.1,-,N/A,,Clear,160,2013-02-01 22:15:00
4:35 PM,65.7,45.5,48,30.31,10.0,SE,8.1,-,N/A,,Clear,140,2013-02-01 22:35:00
4:55 PM,64.8,45.3,49,30.31,10.0,SSE,6.9,-,N/A,,Clear,150,2013-02-01 22:55:00
5:15 PM,63.3,45.7,53,30.31,10.0,SSE,5.8,-,N/A,,Clear,160,2013-02-01 23:15:00
5:35 PM,60.1,46.9,62,30.30,10.0,SSE,8.1,-,N/A,,Clear,160,2013-02-01 23:35:00
5:55 PM,59.4,49.1,69,30.31,10.0,South,6.9,-,N/A,,Clear,170,2013-02-01 23:55:00
6:15 PM,56.8,50.0,78,30.31,10.0,South,4.6,-,N/A,,Clear,170,2013-02-02 00:15:00
6:55 PM,54.9,49.6,83,30.31,10.0,South,4.6,-,N/A,,Clear,170,2013-02-02 00:55:00
7:15 PM,55.4,50.0,82,30.31,10.0,SSW,3.5,-,N/A,,Clear,200,2013-02-02 01:15:00
7:35 PM,54.7,49.8,84,30.31,10.0,SSW,4.6,-,N/A,,Clear,200,2013-02-02 01:35:00
7:55 PM,55.4,49.3,80,30.31,10.0,SSW,4.6,-,N/A,,Clear,200,2013-02-02 01:55:00
8:15 PM,54.1,48.7,82,30.31,10.0,SSW,3.5,-,N/A,,Clear,200,2013-02-02 02:15:00
8:35 PM,50.7,48.2,91,30.32,10.0,Calm,Calm,-,N/A,,Clear,0,2013-02-02 02:35:00
8:55 PM,51.4,49.1,92,30.32,10.0,South,3.5,-,N/A,,Clear,190,2013-02-02 02:55:00
9:15 PM,49.8,48.2,94,30.33,10.0,Calm,Calm,-,N/A,,Clear,0,2013-02-02 03:15:00
9:35 PM,49.3,48.7,98,30.33,10.0,Calm,Calm,-,N/A,,Clear,0,2013-02-02 03:35:00
9:55 PM,48.9,48.9,100,30.33,10.0,Calm,Calm,-,N/A,,Clear,0,2013-02-02 03:55:00
10:15 PM,49.6,48.9,97,30.33,10.0,South,3.5,-,N/A,,Clear,170,2013-02-02 04:15:00
10:35 PM,48.6,48.6,100,30.32,10.0,South,3.5,-,N/A,,Clear,170,2013-02-02 04:35:00
10:55 PM,49.8,49.6,99,30.32,10.0,South,3.5,-,N/A,,Clear,190,2013-02-02 04:55:00
11:35 PM,47.5,47.5,100,30.32,10.0,Calm,Calm,-,N/A,,Clear,0,2013-02-02 05:35:00
11:55 PM,47.5,47.5,100,30.32,10.0,Calm,Calm,-,N/A,,Clear,0,2013-02-02 05:55:00